Terminal Aerodrome Forecast
Issued by NWS

Home | Current Version | Previous Version | Text Only | Print | Product List | Glossary On
Versions: 1 2 3 4 5 6 7 8 9 10 11 12 13 14 15 16 17 18 19 20 21 22
000
FTUS41 KBGM 311121
TAFELM
TAF
KELM 311121Z 3112/0112 VRB03KT 1/2SM FG VV002
      TEMPO 3112/3114 3SM BR SCT003
     FM311400 28010KT P6SM BKN050
     FM312300 VRB03KT P6SM SKC
     FM010500 VRB03KT 4SM BR SKC
     FM010800 VRB03KT 1/2SM FG VV002=

USA.gov is the U.S. government's official web portal to all federal, state and local government web resources and services.